Les Cimelettes de Battice
Les Cimelettes de Battice 19/09/2014 - 10 km
Mise à jour le : 24/09/2014 à 09:48
Classement définitif, aucune correction possible
Place Nom Prénom Dossard Temps Vitesse Allure Place. Cat. Catégorie
1 MICHEL LUC 498 37:38 15,94 3:45 1 Séniors
2 CASTERMANS VINCENT 757 38:18 15,66 3:49 2 Séniors
3 HERZET FREDERICK 4 38:46 15,48 3:52 3 Séniors
4 ESTE SEBASTIEN 266 39:30 15,19 3:57 4 Séniors
5 NERRINCK JOHAN 517 40:10 14,94 4:01 5 Séniors
6 HENDRICK JULIEN 347 40:45 14,72 4:04 6 Séniors
7 BEUKEN SERGE 80 40:51 14,68 4:05 1 Vétérans 1
8 WILLEMS GUNTER 792 40:54 14,67 4:05 7 Séniors
9 BREUER GUILLAUME 114 41:08 14,58 4:06 8 Séniors
10 DESARCY ROBIN 771 41:12 14,56 4:07 1 Espoirs Garçons
11 GEORGES TONY 312 41:14 14,55 4:07 9 Séniors
12 BERNARD NICOLAS 778 41:22 14,50 4:08 10 Séniors
13 BRONLET BENOIT 803 41:24 14,49 4:08 2 Vétérans 1
14 HACKENS YANNICK 773 41:43 14,38 4:10 3 Vétérans 1
15 DUPUIS GAETAN 698 41:57 14,30 4:11 11 Séniors
16 DUMOULIN MAXIME 250 42:06 14,25 4:12 2 Espoirs Garçons
17 DETHIER JEROME 231 42:30 14,11 4:15 12 Séniors
18 LEGROS RAPHAEL 811 42:42 14,05 4:16 13 Séniors
19 DUBOIS SAMUEL 246 42:53 13,99 4:17 14 Séniors
20 NOEL JULIEN 789 43:13 13,88 4:19 15 Séniors
21 ROZEIN DIETER 588 43:17 13,86 4:19 4 Vétérans 1
22 WIERTZ XAVIER 790 43:23 13,83 4:20 16 Séniors
23 NICOLAS FRANCIS 518 43:36 13,76 4:21 5 Vétérans 1
24 JASPAR JULIEN 382 43:50 13,68 4:23 17 Séniors
25 MARCHAL PIERRE 831 43:58 13,65 4:23 18 Séniors
26 BECKERS LOIC 66 44:02 13,62 4:24 19 Séniors
27 DELREZ DIDIER 203 44:11 13,58 4:25 6 Vétérans 1
28 LENSSEN PIERRE 824 44:19 13,53 4:25 20 Séniors
29 TALBOT LUDOVIC 623 44:22 13,52 4:26 21 Séniors
30 JOURDAN GUY 804 44:57 13,35 4:29 22 Séniors
31 LIEGEOIS MARC 832 44:58 13,34 4:29 7 Vétérans 1
32 FRANSSEN MICHAEL 786 45:31 13,18 4:33 8 Vétérans 1
33 WANSART PIERRE 680 45:33 13,17 4:33 9 Vétérans 1
34 JOASSART MARTIN 386 45:37 13,15 4:33 23 Séniors
35 OURY PATRICE 530 45:42 13,13 4:34 10 Vétérans 1
36 DETHIER ALAIN 769 45:49 13,09 4:34 1 Vétérans 2
37 FISSETTE YANNICK 728 45:50 13,09 4:35 24 Séniors
38 PONCELET NICOLAS 781 45:51 13,08 4:35 25 Séniors
39 D'AFFNAY JEAN-FRANCOIS 162 46:01 13,03 4:36 26 Séniors
40 DETHIER JULIEN 229 46:21 12,94 4:38 27 Séniors
41 CUPERS RENAUD 802 46:26 12,92 4:38 28 Séniors
42 HENNEN THIEBAUT 838 46:35 12,88 4:39 29 Séniors
43 LEMAIRE GUILLAUME 441 46:40 12,86 4:40 30 Séniors
44 DEJARDIN FREDERIC 187 46:42 12,85 4:40 11 Vétérans 1
45 CARIA NANDO 132 46:51 12,80 4:41 1 Vétérans 3
46 DARTOIS FABRICE 170 46:53 12,79 4:41 12 Vétérans 1
47 BEUKEN DIDIER 81 46:56 12,78 4:41 2 Vétérans 2
48 LEGROS FRANCIS 431 47:03 12,75 4:42 13 Vétérans 1
49 MUYLKENS VINCENT 512 47:11 12,72 4:43 14 Vétérans 1
50 LORQUET JEAN-MARC 461 47:12 12,71 4:43 3 Vétérans 2
51 BECKERS THOMAS 67 47:13 12,71 4:43 3 Espoirs Garçons
52 JASPAR CHRISTIAN 383 47:16 12,69 4:43 2 Vétérans 3
53 SOLHI KHALID 612 47:26 12,65 4:44 15 Vétérans 1
54 HEROUFOSSE DAVID 355 47:27 12,64 4:44 31 Séniors
55 POLIS GREGORY 549 47:29 12,64 4:44 32 Séniors
56 CELLO CHRISTOPHE 135 47:30 12,63 4:45 33 Séniors
57 DERWAEL ALAIN 791 47:38 12,59 4:45 16 Vétérans 1
58 JUSTE CHRISTIAAN 398 47:41 12,58 4:46 4 Vétérans 2
59 WANSART NICOLAS 822 47:45 12,56 4:46 34 Séniors
60 HALLEUX JEAN MARIE 337 48:00 12,50 4:48 17 Vétérans 1
61 CANALES ALBERTO 130 48:03 12,48 4:48 5 Vétérans 2
62 BRAGARD JEAN-FRANCOIS 110 48:07 12,47 4:48 35 Séniors
63 BILLEN JEAN 797 48:13 12,44 4:49 36 Séniors
64 BOVENS LAURENT 828 48:16 12,43 4:49 37 Séniors
65 PIRENNE DAVID 539 48:18 12,42 4:49 38 Séniors
66 VANBRABANT RAPHAEL 653 48:20 12,41 4:50 39 Séniors
67 SCALCO FABIAN 593 48:24 12,40 4:50 40 Séniors
68 DEGUELDRE VINCENT 186 48:29 12,37 4:50 41 Séniors
69 ANDRE RENE 47 48:33 12,36 4:51 6 Vétérans 2
70 SPAILIER OLIVIER 762 48:36 12,35 4:51 18 Vétérans 1
71 BONFOND PATRICK 97 48:37 12,34 4:51 19 Vétérans 1
72 SENTE CYNTHIA 605 48:49 12,29 4:52 1 Ainées 1
73 BOUMRAH ACHMED 840 48:50 12,29 4:53 42 Séniors
74 BELBOOM ANDRE 70 48:52 12,28 4:53 20 Vétérans 1
75 THIELEN ALAIN 630 49:08 12,21 4:54 21 Vétérans 1
76 HAPPART GREGORY 341 49:12 12,19 4:55 22 Vétérans 1
77 CHASPIERRE GILLES 799 49:18 12,17 4:55 43 Séniors
78 BAGUETTE DENIS 55 49:43 12,06 4:58 44 Séniors
79 PESSER ALINE 11 49:54 12,02 4:59 2 Ainées 1
80 DUMOULIN PHILIPPE 249 49:56 12,02 4:59 23 Vétérans 1
81 FRANSSEN CHRISTOPHE 297 49:59 12,00 4:59 24 Vétérans 1
82 FROIDMONT JORDAN 801 50:05 11,98 5:00 45 Séniors
83 CORTLEVEN WILLY 751 50:25 11,90 5:02 3 Vétérans 3
84 HUTSCHEMACKERS BERNARD 369 50:51 11,80 5:05 25 Vétérans 1
85 BROUWIER PIERRE 121 51:04 11,75 5:06 4 Vétérans 3
86 LAPAILLE DANIEL 758 51:15 11,71 5:07 26 Vétérans 1
87 CARABIN MARTINE 131 51:19 11,69 5:07 1 Ainées 2
88 FONTAINE SERGE 291 51:20 11,69 5:08 27 Vétérans 1
89 ERNST ANDRE 265 51:30 11,65 5:09 7 Vétérans 2
90 FRANCOTTE PIERRE 296 51:33 11,64 5:09 46 Séniors
91 CRUTZEN CLAUDY 783 51:37 11,62 5:09 8 Vétérans 2
92 PONS ANNE 550 51:51 11,57 5:11 3 Ainées 1
93 MEYS CLAUDE 800 51:54 11,56 5:11 28 Vétérans 1
94 WILLEM JEAN-PHILIPPE 793 52:01 11,53 5:12 47 Séniors
95 BOUTET CEDRIC 823 52:04 11,52 5:12 48 Séniors
96 ANDRIEN TONY 51 52:13 11,49 5:13 9 Vétérans 2
97 GOMZE MICHEL 272 52:15 11,48 5:13 29 Vétérans 1
98 HEINRICHS GREGORY 346 52:25 11,45 5:14 49 Séniors
99 CACCIATORE ALESSANDRO 848 52:38 11,40 5:15 30 Vétérans 1
100 RIGA PHILIPPE 573 52:44 11,37 5:16 31 Vétérans 1
101 JONLET YVES 784 52:48 11,36 5:16 10 Vétérans 2
102 HEUSSCHEN CHRISTINE 360 52:50 11,36 5:17 2 Ainées 2
103 CRASSON VINCENT 764 52:51 11,35 5:17 11 Vétérans 2
104 COLLARD SERGE 145 52:55 11,34 5:17 32 Vétérans 1
105 NAWYN BENJAMIN 5 52:56 11,33 5:17 33 Vétérans 1
106 RITROVATO SYLVAIN 575 52:58 11,33 5:17 34 Vétérans 1
107 WATAR FRANCIS 856 52:59 11,32 5:17 35 Vétérans 1
108 HURLET LUCIEN 724 53:06 11,30 5:18 12 Vétérans 2
109 BECKERS BENOIT 12 53:07 11,29 5:18 36 Vétérans 1
110 DEJOSE THIERRY 9 53:09 11,29 5:18 37 Vétérans 1
111 KREMER JOEL 409 53:13 11,27 5:19 38 Vétérans 1
112 POUMAY FRANCIS 770 53:15 11,27 5:19 13 Vétérans 2
113 MOYSE EVELYNE 787 53:16 11,26 5:19 1 Dames
114 STINI SIRHAN 621 53:19 11,25 5:19 39 Vétérans 1
115 RANS CEDRIC 560 53:25 11,23 5:20 40 Vétérans 1
116 DONY PHILIPPE 854 53:31 11,21 5:21 41 Vétérans 1
117 DORTHU OLIVIER 837 53:33 11,20 5:21 42 Vétérans 1
118 COOSEMANS MARIE 775 53:36 11,19 5:21 1 Espoirs Filles
119 COOSEMANS EMILE 774 53:39 11,18 5:21 5 Vétérans 3
120 DROUGUET JOSY 782 53:42 11,17 5:22 50 Séniors
121 EVRARD JOHAN 270 53:44 11,16 5:22 51 Séniors
122 MOUREAU CAROLE 509 53:46 11,16 5:22 4 Ainées 1
123 JOWA PIERRE 392 53:53 11,13 5:23 14 Vétérans 2
124 VERDIN FRED 754 53:58 11,12 5:23 52 Séniors
125 GUILLAUME DAMIEN 6 54:01 11,11 5:24 53 Séniors
126 MOHON OPHELIE 501 54:24 11,03 5:26 2 Espoirs Filles
127 LEJEUNE DAVID 753 54:26 11,02 5:26 43 Vétérans 1
128 LORQUET MARC 460 54:28 11,01 5:26 44 Vétérans 1
129 HARDY MARC 827 54:30 11,01 5:27 45 Vétérans 1
130 MANSET ADELINE 474 54:31 11,00 5:27 2 Dames
131 MENNICKEN ROGER 494 54:40 10,97 5:28 15 Vétérans 2
132 RYCKEBUSCH CYRILLE 849 54:42 10,97 5:28 6 Vétérans 3
133 REGNIER DIDIER 752 54:44 10,96 5:28 46 Vétérans 1
134 DEMOLLIN MARC 212 54:46 10,95 5:28 16 Vétérans 2
135 HENSGENS JAN 850 54:48 10,95 5:28 7 Vétérans 3
136 CASTELA DELPHINE 776 54:50 10,94 5:29 3 Dames
137 DETHIER JEAN-FRANCOIS 230 55:06 10,89 5:30 54 Séniors
138 GENICOT ALEXIS 829 55:09 10,88 5:30 55 Séniors
139 DROPSY MICHEL 763 55:19 10,85 5:31 8 Vétérans 3
140 JENNES JEAN FRANCOIS 841 55:33 10,80 5:33 56 Séniors
141 DEWIL JEAN 805 55:44 10,76 5:34 17 Vétérans 2
142 SOMJA JEAN-PHILIPPE 613 55:49 10,75 5:34 57 Séniors
143 RAHIER JESSY 825 55:56 10,73 5:35 58 Séniors
144 SERVAIS LIONEL 826 56:01 10,71 5:36 59 Séniors
145 PONSARD GUY 551 56:02 10,71 5:36 18 Vétérans 2
146 KLASSEN WALLY 756 56:04 10,70 5:36 19 Vétérans 2
147 HALLET PHILIPP 334 56:12 10,68 5:37 47 Vétérans 1
148 OUADNOUNI SOFIAN 711 56:14 10,67 5:37 4 Espoirs Garçons
149 MEURENS PATRICK 836 56:17 10,66 5:37 48 Vétérans 1
150 LUTS BENOIT 760 56:21 10,65 5:38 60 Séniors
151 REUCHAMPS REGINE 571 56:23 10,64 5:38 3 Ainées 2
152 HOMBURG GEOFFREY 806 56:25 10,63 5:38 61 Séniors
153 BEMELMANS PIERRE 19 56:39 10,59 5:39 62 Séniors
154 OUADNOUNI M'BAREK 529 56:42 10,58 5:40 49 Vétérans 1
155 DAUBY ELISABETH 843 56:44 10,57 5:40 4 Dames
156 HOCK MICHAEL 833 56:46 10,57 5:40 63 Séniors
157 DELOYER THOMAS 202 56:48 10,56 5:40 5 Espoirs Garçons
158 BONIVER NANCY 31 56:50 10,55 5:41 5 Ainées 1
159 SCHREURS BERNARD 600 56:56 10,54 5:41 64 Séniors
160 ISERENTANT CAROLINE 817 56:58 10,53 5:41 6 Ainées 1
161 DUBOIS PASCAL 796 57:01 10,52 5:42 65 Séniors
162 DUMOULIN JEAN LUC 248 57:03 10,52 5:42 50 Vétérans 1
163 VANHAEREN GUY 660 57:04 10,51 5:42 51 Vétérans 1
164 BEROGE JEROME 77 57:06 10,51 5:42 52 Vétérans 1
165 JOWAY ERIC 393 57:08 10,50 5:42 20 Vétérans 2
166 DAHM JOSE 164 57:09 10,50 5:42 1 Vétérans 4
167 BREVER CLAIRE 780 57:13 10,49 5:43 7 Ainées 1
168 LECLERCQ XAVIER 18 57:15 10,48 5:43 66 Séniors
169 DALLA CORTE LUDOVIC 835 57:17 10,47 5:43 67 Séniors
170 BELLEFLAMME SERGE 72 57:24 10,45 5:44 53 Vétérans 1
171 BEKKAR WAHIB 851 57:31 10,43 5:45 68 Séniors
172 JONAS VINCENT 24 57:35 10,42 5:45 69 Séniors
173 FETTWEIS THIERRY 281 57:53 10,37 5:47 21 Vétérans 2
174 VOSS MURIEL 672 57:54 10,36 5:47 8 Ainées 1
175 DENOOZ DANIEL 219 57:57 10,35 5:47 22 Vétérans 2
176 BREUER JULIE 115 57:58 10,35 5:47 5 Dames
177 GUENFOUDI AICHA 330 58:06 10,33 5:48 9 Ainées 1
178 LAMBERT CARINE 414 58:18 10,29 5:49 10 Ainées 1
179 CHEBIL RAMI 139 58:20 10,29 5:50 70 Séniors
180 JONLET LIONEL 388 58:24 10,27 5:50 71 Séniors
181 DEMANDT PIETER 842 58:26 10,27 5:50 72 Séniors
182 DORTU ARNAUD 759 58:31 10,25 5:51 73 Séniors
183 GRANDJEAN BENEDICTE 845 58:37 10,23 5:51 11 Ainées 1
184 VERMEIRE ANTOINE 798 58:45 10,21 5:52 74 Séniors
185 WEBER GERTY 683 58:50 10,20 5:53 1 Ainées 3
186 BASTIN PAUL 61 58:51 10,19 5:53 9 Vétérans 3
187 COUMONT SYLVIANE 816 59:08 10,14 5:54 4 Ainées 2
188 DELOYER JEAN PAUL 785 59:09 10,14 5:54 54 Vétérans 1
189 STABEL PHILIPPE 618 59:22 10,10 5:56 55 Vétérans 1
190 HUTSCHEMACKERS GUY 808 59:41 10,05 5:58 10 Vétérans 3
191 SIMONIS NADIA 765 59:46 10,04 5:58 6 Dames
192 BONFOND PHILIPPE 788 59:47 10,03 5:58 56 Vétérans 1
193 GRIFNEE SOPHIE 809 1:00:00 10,00 6:00 7 Dames
194 REPPEN NICOLAS 570 1:00:05 9,98 6:00 57 Vétérans 1
195 VAN LAAR CHRISTINE 652 1:00:08 9,98 6:00 5 Ainées 2
196 PIRARD AXELLE 779 1:00:12 9,97 6:01 8 Dames
197 KAESMACHER FRANCOIS 794 1:00:21 9,94 6:02 58 Vétérans 1
198 KOHNEN STEPHANE 755 1:00:38 9,89 6:03 75 Séniors
199 WEBER GILBERTE 682 1:01:04 9,82 6:06 2 Ainées 3
200 VANDEBERG PAUL 654 1:01:06 9,82 6:06 2 Vétérans 4
201 ROUFOSSE UGO 34 1:01:15 9,79 6:07 59 Vétérans 1
202 TIMMERS LAURENT 740 1:01:21 9,78 6:08 76 Séniors
203 ADAM MURIELLE 39 1:01:26 9,76 6:08 9 Dames
204 DELWAIDE ANNE 209 1:01:41 9,73 6:10 6 Ainées 2
205 RENNOTTE CHRISTIAN 819 1:02:30 9,60 6:15 77 Séniors
206 STEMBERT LAETICIA 852 1:02:32 9,59 6:15 10 Dames
207 RENAERS STEPHANE 562 1:02:38 9,58 6:15 60 Vétérans 1
208 EL BALDI FATIHA 256 1:02:41 9,57 6:16 12 Ainées 1
209 DUYSENS JEANNOT 255 1:03:06 9,51 6:18 23 Vétérans 2
210 SOMJA PHILIPPE 614 1:03:07 9,50 6:18 24 Vétérans 2
211 DANTHINE YVES 812 1:03:23 9,47 6:20 25 Vétérans 2
212 RADERMECKER MARIE ANNE 556 1:03:31 9,44 6:21 7 Ainées 2
213 GOB CATHERINE 844 1:03:46 9,41 6:22 13 Ainées 1
214 ERNOULD FRANCIS 263 1:03:55 9,39 6:23 26 Vétérans 2
215 ERNOULD MARIE 262 1:05:03 9,22 6:30 11 Dames
216 DERICHS PATRICIA 222 1:05:12 9,20 6:31 8 Ainées 2
217 NICKELS DANIELLE 821 1:05:36 9,15 6:33 3 Ainées 3
218 SARDELLI MAURO 853 1:05:40 9,14 6:34 78 Séniors
219 VANDENBORRE LAURENCE 855 1:06:21 9,04 6:38 12 Dames
220 VANDENBORRE JULIEN 657 1:06:23 9,04 6:38 79 Séniors
221 FASSOTTE RAPHAEL 777 1:06:24 9,04 6:38 61 Vétérans 1
222 WILKIN ANDRE 690 1:06:35 9,01 6:39 11 Vétérans 3
223 LEGROS JUSTINE 433 1:07:02 8,95 6:42 3 Espoirs Filles
224 PONCELET CATHERINE 839 1:07:30 8,89 6:45 14 Ainées 1
225 STASSEN BENJAMIN 818 1:07:39 8,87 6:45 80 Séniors
226 RAMON LAETITIA 766 1:08:39 8,74 6:51 15 Ainées 1
227 BRANDT ARLETTE 112 1:08:39 8,74 6:51 4 Ainées 3
228 MAQUINAY FELICIEN 475 1:08:39 8,74 6:51 27 Vétérans 2
229 LOVENBERG GUY 465 1:10:20 8,53 7:02 28 Vétérans 2
230 BURLEON QUENTIN 834 1:10:22 8,53 7:02 81 Séniors
231 MUYTERS SERGE 515 1:10:32 8,51 7:03 12 Vétérans 3
232 DONY PASCALE 810 1:11:09 8,43 7:06 9 Ainées 2
233 BRANDT GERALDINE 846 1:12:11 8,31 7:13 16 Ainées 1
234 COUSSAERT PATRICK 847 1:12:11 8,31 7:13 62 Vétérans 1
235 KAESMACHER EVELYNE 795 1:12:45 8,25 7:16 10 Ainées 2
236 WATHELET STEPHANIE 23 1:12:47 8,24 7:16 17 Ainées 1
237 GAROT JOANNA 14 1:12:48 8,24 7:16 18 Ainées 1
238 MARICHAL FREDERIC 767 1:15:22 7,96 7:32 63 Vétérans 1
239 SERADURA SANDRA 813 1:18:51 7,61 7:53 19 Ainées 1
240 LAGRARI HASSAN 814 1:18:51 7,61 7:53 64 Vétérans 1
241 MERLET FRANCOIS 815 1:18:51 7,61 7:53 82 Séniors
242 THISSEN LAURENT 768 1:18:51 7,61 7:53 83 Séniors
243 BRENNENRAEDTS GEOFFREY 807 1:18:51 7,61 7:53 84 Séniors